Weather History for Moncks Corner, SC

Change the Weather History Date:

Sunday, October 7, 2012

  Actual Average (KCHS) Record (KCHS)
Temperature  
Mean Temperature 76 °F 70 °F  
Max Temperature 87 °F 79 °F 91 °F (1951)
Min Temperature 66 °F 60 °F 44 °F (1978)
Degree Days  
Heating Degree Days 0 1  
Month to date heating degree days 7  
Since 1 July heating degree days 10  
Cooling Degree Days 12 6  
Month to date cooling degree days 45  
Year to date cooling degree days 2183  
Growing Degree Days 26 (Base 50)    
Moisture  
Dew Point 68 °F    
Average Humidity 78    
Maximum Humidity 94    
Minimum Humidity 51    
Precipitation  
Precipitation 0.00 in 0.14 in 1.38 in (1965)
Month to date precipitation 1.08  
Year to date precipitation 42.82  
Sea Level Pressure  
Sea Level Pressure 29.97 in    
Wind  
Wind Speed 2 mph (WNW)    
Max Wind Speed 9 mph    
Max Gust Speed -    
Visibility 7 miles    
Events Fog    
T = Trace of Precipitation, MM = Missing Value Source: NWS Daily Summary

Daily Weather History Graph

Daily Weather History Graph

Search for Another Location

Airport:

Trip Planner

Search our weather history database for the weather conditions in past years. The results will help you decide how hot, cold, wet, or windy it might be!

Date:

Astronomy

Oct. 07, 2012 Rise Set
Actual Time 7:18 AM EDT 6:56 PM EDT
Civil Twilight 6:54 AM EDT 7:20 PM EDT
Nautical Twilight 6:25 AM EDT 7:49 PM EDT
Astronomical Twilight 5:56 AM EDT 8:18 PM EDT
Moon No Moon Rise 1:42 PM EDT (10/7)
Length of Visible Light 12h 26m
Length of Day
11h 37m
Waning Gibbous, 56% of the Moon is Illuminated
Oct 7
Waning Gibbous
Oct 8
Last Quarter
Oct 15
New
Oct 21
First Quarter
Oct 29
Full

Hourly Weather History & Observations

Time (EDT) Temp. Heat Index Dew Point Humidity Pressure Visibility Wind Dir Wind Speed Gust Speed Precip Events Conditions
12:15 AM 71.6 °F - 68.0 °F 88% 29.95 in 5.0 mi Calm Calm - N/A   Clear
12:35 AM 71.6 °F - 68.0 °F 88% 29.96 in 3.0 mi Calm Calm - N/A   Clear
12:55 AM 69.8 °F - 68.0 °F 94% 29.95 in 4.0 mi Calm Calm - N/A   Clear
1:15 AM 69.8 °F - 68.0 °F 94% 29.95 in 3.0 mi Calm Calm - N/A   Clear
1:35 AM 69.8 °F - 68.0 °F 94% 29.95 in 3.0 mi Calm Calm - N/A   Clear
1:55 AM 69.8 °F - 68.0 °F 94% 29.95 in 1.5 mi Calm Calm - N/A   Mist
2:15 AM 69.8 °F - 68.0 °F 94% 29.95 in 3.0 mi Calm Calm - N/A   Clear
2:35 AM 69.8 °F - 68.0 °F 94% 29.95 in 7.0 mi Calm Calm - N/A   Clear
2:55 AM 69.8 °F - 68.0 °F 94% 29.95 in 4.0 mi Calm Calm - N/A   Clear
3:15 AM 69.8 °F - 68.0 °F 94% 29.94 in 3.0 mi Calm Calm - N/A   Clear
3:35 AM 69.8 °F - 68.0 °F 94% 29.94 in 5.0 mi Calm Calm - N/A   Clear
3:55 AM 69.8 °F - 68.0 °F 94% 29.94 in 1.8 mi Calm Calm - N/A   Mist
4:15 AM 69.8 °F - 66.2 °F 88% 29.93 in 5.0 mi Calm Calm - N/A   Clear
4:35 AM 69.8 °F - 66.2 °F 88% 29.93 in 5.0 mi Calm Calm - N/A   Clear
4:55 AM 69.8 °F - 68.0 °F 94% 29.93 in 2.0 mi Calm Calm - N/A   Clear
5:15 AM 69.8 °F - 68.0 °F 94% 29.94 in 2.5 mi Calm Calm - N/A   Clear
5:35 AM 69.8 °F - 66.2 °F 88% 29.94 in 3.0 mi Calm Calm - N/A   Scattered Clouds
5:55 AM 69.8 °F - 68.0 °F 94% 29.95 in 0.5 mi Calm Calm - N/A Fog Fog
6:15 AM 69.8 °F - 68.0 °F 94% 29.95 in 0.2 mi SW 3.5 mph - N/A Fog Fog
6:35 AM 69.8 °F - 68.0 °F 94% 29.95 in 0.5 mi Calm Calm - N/A Fog Fog
6:55 AM 69.8 °F - 68.0 °F 94% 29.96 in 0.5 mi Calm Calm - N/A Fog Fog
7:15 AM 69.8 °F - 68.0 °F 94% 29.97 in 0.5 mi WSW 3.5 mph - N/A Fog Fog
7:35 AM 71.6 °F - 68.0 °F 88% 29.97 in 0.2 mi WSW 3.5 mph - N/A Fog Fog
7:55 AM 71.6 °F - 69.8 °F 94% 29.97 in 0.8 mi WSW 3.5 mph - N/A   Mist
8:15 AM 71.6 °F - 69.8 °F 94% 29.98 in 1.5 mi WSW 3.5 mph - N/A   Mist
8:35 AM 71.6 °F - 69.8 °F 94% 29.99 in 3.0 mi West 3.5 mph - N/A   Mist
8:55 AM 73.4 °F - 69.8 °F 88% 29.99 in 3.0 mi Calm Calm - N/A   Overcast
9:15 AM 73.4 °F - 71.6 °F 94% 30.00 in 5.0 mi WSW 3.5 mph - N/A   Overcast
9:35 AM 75.2 °F - 71.6 °F 89% 29.99 in 7.0 mi WSW 4.6 mph - N/A   Mostly Cloudy
9:55 AM 77.0 °F - 71.6 °F 83% 30.00 in 7.0 mi WSW 3.5 mph - N/A   Scattered Clouds
10:15 AM 78.8 °F - 71.6 °F 78% 30.00 in 7.0 mi NW 4.6 mph - N/A   Clear
10:35 AM 80.6 °F 84.6 °F 71.6 °F 74% 30.00 in 10.0 mi West 4.6 mph - N/A   Clear
10:55 AM 82.4 °F 87.2 °F 71.6 °F 70% 29.99 in 10.0 mi SW 5.8 mph - N/A   Scattered Clouds
11:15 AM 82.4 °F 87.2 °F 71.6 °F 70% 29.99 in 7.0 mi WSW 8.1 mph - N/A   Clear
11:35 AM 82.4 °F 87.2 °F 71.6 °F 70% 29.99 in 10.0 mi SW 8.1 mph - N/A   Scattered Clouds
11:55 AM 84.2 °F 88.4 °F 69.8 °F 62% 29.98 in 10.0 mi West 5.8 mph - N/A   Scattered Clouds
12:15 PM 86.0 °F 90.4 °F 69.8 °F 58% 29.98 in 10.0 mi West 6.9 mph - N/A   Clear
12:35 PM 86.0 °F 89.4 °F 68.0 °F 55% 29.97 in 10.0 mi WSW 3.5 mph - N/A   Clear
12:55 PM 86.0 °F 89.4 °F 68.0 °F 55% 29.97 in 7.0 mi WSW 6.9 mph - N/A   Clear
1:35 PM 86.0 °F 88.2 °F 66.2 °F 51% 29.96 in 10.0 mi SW 5.8 mph - N/A   Clear
1:55 PM 84.2 °F 86.6 °F 66.2 °F 55% 29.95 in 10.0 mi West 3.5 mph - N/A   Clear
2:15 PM 86.0 °F 89.4 °F 68.0 °F 55% 29.94 in 10.0 mi West 5.8 mph - N/A   Clear
2:35 PM 84.2 °F 86.6 °F 66.2 °F 55% 29.94 in 10.0 mi NNW 3.5 mph - N/A   Clear
2:55 PM 86.0 °F 89.4 °F 68.0 °F 55% 29.93 in 10.0 mi North 3.5 mph - N/A   Clear
3:15 PM 87.8 °F 91.4 °F 68.0 °F 52% 29.93 in 10.0 mi WSW 4.6 mph - N/A   Clear
3:35 PM 87.8 °F 91.4 °F 68.0 °F 52% 29.93 in 7.0 mi NW 3.5 mph - N/A   Clear
3:55 PM 87.8 °F 91.4 °F 68.0 °F 52% 29.93 in 7.0 mi NW 3.5 mph - N/A   Clear
4:15 PM 86.0 °F 90.4 °F 69.8 °F 58% 29.93 in 7.0 mi North 4.6 mph - N/A   Clear
4:35 PM 86.0 °F 89.4 °F 68.0 °F 55% 29.93 in 7.0 mi Calm Calm - N/A   Clear
4:55 PM 86.0 °F 88.2 °F 66.2 °F 51% 29.93 in 10.0 mi Calm Calm - N/A   Clear
5:15 PM 86.0 °F 89.4 °F 68.0 °F 55% 29.93 in 10.0 mi North 3.5 mph - N/A   Clear
5:35 PM 84.2 °F 87.3 °F 68.0 °F 58% 29.93 in 10.0 mi Calm Calm - N/A   Clear
5:55 PM 84.2 °F 88.4 °F 69.8 °F 62% 29.94 in 10.0 mi Calm Calm - N/A   Clear
6:15 PM 82.4 °F 86.3 °F 69.8 °F 66% 29.95 in 10.0 mi Calm Calm - N/A   Clear
6:35 PM 78.8 °F - 69.8 °F 74% 29.95 in 10.0 mi Calm Calm - N/A   Clear
6:55 PM 78.8 °F - 71.6 °F 78% 29.96 in 10.0 mi Calm Calm - N/A   Clear
7:15 PM 77.0 °F - 71.6 °F 83% 29.96 in 10.0 mi Calm Calm - N/A   Clear
7:35 PM 75.2 °F - 71.6 °F 89% 29.97 in 7.0 mi Calm Calm - N/A   Clear
7:55 PM 75.2 °F - 71.6 °F 89% 29.98 in 7.0 mi Calm Calm - N/A   Clear
8:15 PM 73.4 °F - 69.8 °F 88% 29.98 in 5.0 mi Calm Calm - N/A   Clear
8:35 PM 73.4 °F - 71.6 °F 94% 29.99 in 10.0 mi NW 3.5 mph - N/A   Clear
8:55 PM 77.0 °F - 69.8 °F 78% 30.00 in 10.0 mi NNW 3.5 mph - N/A   Scattered Clouds
9:15 PM 75.2 °F - 68.0 °F 78% 30.01 in 10.0 mi NNE 5.8 mph - N/A   Scattered Clouds
9:35 PM 75.2 °F - 66.2 °F 73% 30.02 in 7.0 mi NNE 9.2 mph - N/A   Scattered Clouds
9:55 PM 73.4 °F - 66.2 °F 78% 30.03 in 10.0 mi NNE 8.1 mph - N/A   Scattered Clouds
10:15 PM 73.4 °F - 64.4 °F 73% 30.03 in 10.0 mi NNE 9.2 mph - N/A   Mostly Cloudy
10:35 PM 71.6 °F - 64.4 °F 78% 30.04 in 10.0 mi NNE 9.2 mph - N/A   Overcast
10:55 PM 71.6 °F - 64.4 °F 78% 30.05 in 10.0 mi NNE 8.1 mph - N/A   Overcast
11:15 PM 68.0 °F - 60.8 °F 78% 30.05 in 10.0 mi NNE 9.2 mph - N/A   Scattered Clouds
11:35 PM 66.2 °F - 59.0 °F 78% 30.05 in 10.0 mi NNE 8.1 mph - N/A   Clear
11:55 PM 66.2 °F - 59.0 °F 78% 30.05 in 10.0 mi NE 9.2 mph - N/A   Clear